• In Hungary
  • List of Countries
  • For 7 days
  • Water Temperature
  • Satellite Maps
  • Weather Map
  • News
  • Weather Widgets
  • user-avatar
    Login

    Hourly Weather Trzonki

    Today, 25 June, Monday

    Time Temperature Precipitation Wind Pressure Humidity
    00:00 +9°C° 0.2 mm 2 mps 750 mmHg 95%
    01:00 +9°C° 0.2 mm 2 mps 750 mmHg 96%
    02:00 +10°C° 0.5 mm 2 mps 750 mmHg 96%
    03:00 +10°C° 0.5 mm 3 mps 750 mmHg 96%
    04:00 +10°C° 0.5 mm 3 mps 750 mmHg 96%
    05:00 +10°C° 0.6 mm 3 mps 750 mmHg 95%
    06:00 +11°C° 0.6 mm 4 mps 750 mmHg 94%
    07:00 +11°C° 0.6 mm 4 mps 750 mmHg 94%
    08:00 +12°C° 0.7 mm 4 mps 750 mmHg 93%
    09:00 +12°C° 0.7 mm 4 mps 750 mmHg 92%
    10:00 +13°C° 0.7 mm 4 mps 750 mmHg 91%
    11:00 +13°C° 0.6 mm 4 mps 751 mmHg 90%
    12:00 +14°C° 0.6 mm 5 mps 751 mmHg 89%
    13:00 +14°C° 0.6 mm 5 mps 751 mmHg 88%
    14:00 +14°C° 0.4 mm 4 mps 751 mmHg 86%
    15:00 +15°C° 0.4 mm 4 mps 751 mmHg 84%
    16:00 +15°C° 0.4 mm 4 mps 751 mmHg 82%
    17:00 +14°C° 0.4 mm 3 mps 751 mmHg 85%
    18:00 +15°C° 0.4 mm 2 mps 751 mmHg 88%
    19:00 +14°C° 0.4 mm 2 mps 751 mmHg 91%
    20:00 +13°C° 0.1 mm 2 mps 751 mmHg 92%
    21:00 +13°C° 0.1 mm 1 mps 751 mmHg 93%
    22:00 +12°C° 0.1 mm 1 mps 751 mmHg 94%
    23:00 +12°C° 0.2 mm 2 mps 751 mmHg 94%

    Tomorrow, 26 June, Tuesday

    Time Temperature Precipitation Wind Pressure Humidity
    00:00 +12°C° 0.2 mm 2 mps 751 mmHg 94%
    01:00 +12°C° 0.2 mm 2 mps 751 mmHg 95%
    02:00 +12°C° 0.5 mm 2 mps 751 mmHg 95%
    03:00 +12°C° 0.5 mm 2 mps 751 mmHg 95%
    04:00 +12°C° 0.5 mm 2 mps 751 mmHg 96%
    05:00 +13°C° 0.5 mm 2 mps 752 mmHg 93%
    06:00 +14°C° 0.5 mm 2 mps 752 mmHg 90%
    07:00 +15°C° 0.5 mm 2 mps 752 mmHg 87%
    08:00 +16°C° 0.9 mm 2 mps 752 mmHg 83%
    09:00 +17°C° 0.9 mm 2 mps 752 mmHg 79%
    10:00 +18°C° 0.9 mm 3 mps 752 mmHg 75%
    11:00 +19°C° 0.6 mm 3 mps 752 mmHg 71%
    12:00 +20°C° 0.6 mm 3 mps 752 mmHg 68%
    13:00 +21°C° 0.6 mm 3 mps 752 mmHg 64%
    14:00 +21°C° 0.6 mm 3 mps 752 mmHg 65%
    15:00 +20°C° 0.6 mm 3 mps 752 mmHg 67%
    16:00 +20°C° 0.6 mm 3 mps 752 mmHg 68%
    17:00 +19°C° 0.4 mm 2 mps 752 mmHg 74%
    18:00 +18°C° 0.4 mm 2 mps 752 mmHg 80%
    19:00 +17°C° 0.4 mm 2 mps 753 mmHg 86%
    20:00 +16°C° 0.1 mm 2 mps 753 mmHg 89%
    21:00 +15°C° 0.1 mm 2 mps 753 mmHg 91%
    22:00 +13°C° 0.1 mm 3 mps 753 mmHg 94%
    23:00 +13°C° 0.2 mm 2 mps 754 mmHg 95%

    Day after tomorrow, 27 June, Wednesday

    Time Temperature Precipitation Wind Pressure Humidity
    00:00 +13°C° 0.2 mm 2 mps 754 mmHg 95%
    01:00 +13°C° 0.2 mm 2 mps 754 mmHg 96%
    02:00 +13°C° 0 mm 2 mps 754 mmHg 96%
    03:00 +13°C° 0 mm 2 mps 754 mmHg 96%
    04:00 +12°C° 0 mm 3 mps 754 mmHg 96%
    05:00 +13°C° 0 mm 3 mps 755 mmHg 93%
    06:00 +15°C° 0 mm 4 mps 755 mmHg 89%
    07:00 +17°C° 0 mm 4 mps 755 mmHg 86%
    08:00 +19°C° 0.1 mm 4 mps 755 mmHg 81%
    09:00 +20°C° 0.1 mm 4 mps 756 mmHg 75%
    10:00 +21°C° 0.1 mm 4 mps 756 mmHg 70%
    11:00 +22°C° 0.2 mm 4 mps 756 mmHg 68%
    12:00 +22°C° 0.2 mm 4 mps 756 mmHg 66%
    13:00 +23°C° 0.2 mm 4 mps 756 mmHg 64%
    14:00 +23°C° 0.4 mm 4 mps 756 mmHg 66%
    15:00 +23°C° 0.4 mm 4 mps 755 mmHg 67%
    16:00 +23°C° 0.4 mm 4 mps 755 mmHg 69%
    17:00 +22°C° 0.3 mm 4 mps 755 mmHg 73%
    18:00 +21°C° 0.3 mm 4 mps 755 mmHg 78%
    19:00 +20°C° 0.3 mm 4 mps 755 mmHg 83%
    20:00 +19°C° 0 mm 4 mps 755 mmHg 84%
    21:00 +19°C° 0 mm 4 mps 755 mmHg 84%
    22:00 +17°C° 0 mm 5 mps 755 mmHg 85%
    23:00 +17°C° 0 mm 5 mps 754 mmHg 85%

    28 June, Thursday

    Time Temperature Precipitation Wind Pressure Humidity
    00:00 +17°C° 0 mm 5 mps 754 mmHg 85%
    01:00 +17°C° 0 mm 5 mps 754 mmHg 84%
    02:00 +17°C° 0 mm 5 mps 754 mmHg 83%
    03:00 +17°C° 0 mm 5 mps 754 mmHg 83%
    04:00 +17°C° 0 mm 6 mps 753 mmHg 82%
    05:00 +19°C° 0 mm 6 mps 753 mmHg 77%
    06:00 +20°C° 0 mm 7 mps 753 mmHg 72%
    07:00 +21°C° 0 mm 8 mps 752 mmHg 68%
    08:00 +23°C° 0 mm 8 mps 752 mmHg 65%
    09:00 +24°C° 0 mm 9 mps 752 mmHg 63%
    10:00 +26°C° 0 mm 9 mps 751 mmHg 60%
    11:00 +27°C° 0 mm 9 mps 751 mmHg 60%
    12:00 +28°C° 0 mm 8 mps 751 mmHg 60%
    13:00 +29°C° 0 mm 8 mps 751 mmHg 60%
    14:00 +28°C° 0.3 mm 7 mps 750 mmHg 65%
    15:00 +27°C° 0.3 mm 6 mps 750 mmHg 70%
    16:00 +26°C° 0.3 mm 5 mps 750 mmHg 75%
    17:00 +25°C° 0.7 mm 5 mps 749 mmHg 77%
    18:00 +24°C° 0.7 mm 6 mps 749 mmHg 78%
    19:00 +24°C° 0.7 mm 6 mps 749 mmHg 80%
    20:00 +23°C° 0.5 mm 5 mps 749 mmHg 83%
    21:00 +22°C° 0.5 mm 5 mps 749 mmHg 87%
    22:00 +21°C° 0.5 mm 4 mps 749 mmHg 91%
    23:00 +21°C° 0.2 mm 4 mps 749 mmHg 92%

    29 June, Friday

    Time Temperature Precipitation Wind Pressure Humidity
    00:00 +20°C° 0.2 mm 4 mps 749 mmHg 93%
    01:00 +20°C° 0.2 mm 4 mps 749 mmHg 95%
    02:00 +20°C° 0 mm 4 mps 748 mmHg 95%
    03:00 +20°C° 0 mm 4 mps 748 mmHg 96%
    04:00 +19°C° 0 mm 3 mps 748 mmHg 97%
    05:00 +20°C° 0.1 mm 4 mps 748 mmHg 95%
    06:00 +21°C° 0.1 mm 4 mps 747 mmHg 92%
    07:00 +22°C° 0.1 mm 4 mps 747 mmHg 90%
    08:00 +23°C° 0.4 mm 4 mps 747 mmHg 83%
    09:00 +26°C° 0.4 mm 4 mps 747 mmHg 77%
    10:00 +27°C° 0.4 mm 4 mps 746 mmHg 70%
    11:00 +28°C° 1 mm 4 mps 746 mmHg 69%
    12:00 +28°C° 1 mm 4 mps 746 mmHg 69%
    13:00 +28°C° 1 mm 4 mps 745 mmHg 68%
    14:00 +29°C° 0 mm 3 mps 745 mmHg 66%
    15:00 +29°C° 0 mm 3 mps 745 mmHg 65%
    16:00 +29°C° 0 mm 3 mps 744 mmHg 63%
    17:00 +28°C° 0.3 mm 3 mps 744 mmHg 69%
    18:00 +27°C° 0.3 mm 2 mps 744 mmHg 75%
    19:00 +26°C° 0.3 mm 2 mps 744 mmHg 81%
    20:00 +25°C° 0.9 mm 2 mps 744 mmHg 85%
    21:00 +23°C° 0.9 mm 2 mps 744 mmHg 89%
    22:00 +21°C° 0.9 mm 2 mps 744 mmHg 93%
    23:00 +21°C° 0.3 mm 3 mps 744 mmHg 94%

    30 June, Saturday

    Time Temperature Precipitation Wind Pressure Humidity
    00:00 +20°C° 0.3 mm 3 mps 744 mmHg 95%
    01:00 +20°C° 0.3 mm 4 mps 744 mmHg 96%
    02:00 +20°C° 0.1 mm 5 mps 744 mmHg 96%
    03:00 +19°C° 0.1 mm 6 mps 745 mmHg 95%
    04:00 +19°C° 0.1 mm 6 mps 745 mmHg 95%
    05:00 +17°C° 0.1 mm 7 mps 745 mmHg 92%
    06:00 +16°C° 0.1 mm 7 mps 746 mmHg 89%
    07:00 +14°C° 0.1 mm 7 mps 746 mmHg 87%
    08:00 +16°C° 0 mm 8 mps 747 mmHg 78%
    09:00 +17°C° 0 mm 8 mps 747 mmHg 70%
    10:00 +18°C° 0 mm 8 mps 748 mmHg 61%
    11:00 +20°C° 0 mm 8 mps 748 mmHg 59%
    12:00 +20°C° 0 mm 8 mps 748 mmHg 56%
    13:00 +21°C° 0 mm 8 mps 749 mmHg 53%
    14:00 +21°C° 0 mm 8 mps 749 mmHg 55%
    15:00 +21°C° 0 mm 8 mps 749 mmHg 56%
    16:00 +21°C° 0 mm 8 mps 749 mmHg 58%
    17:00 +18°C° 0 mm 7 mps 750 mmHg 61%
    18:00 +17°C° 0 mm 6 mps 750 mmHg 65%
    19:00 +15°C° 0 mm 6 mps 751 mmHg 68%
    20:00 +14°C° 0 mm 5 mps 751 mmHg 70%
    21:00 +13°C° 0 mm 5 mps 752 mmHg 72%
    22:00 +12°C° 0 mm 5 mps 752 mmHg 74%
    23:00 +10°C° 0 mm 5 mps 753 mmHg 75%
    Show more